Location: Kielce
(50.8833°N, 20.6167°E)
Time: 20:57:10
(UTC+02:00)

SR - Pass Details

Date: 26 April 2021
Orbit: 573 x 882 km, 66.7° (Epoch: 09 May)

Event Time Altitude Azimuth Distance (km) Brightness Sun altitude
Rises 05:19:49 0° 165° (SSE) 3,334 ? -0.9°
Reaches altitude 10° 05:22:53 10° 148° (SSE) 2,452 ? -0.5°
Maximum altitude 05:26:44 19° 105° (ESE) 1,950 ? 0.1°
Drops below altitude 10° 05:30:40 10° 63° (ENE) 2,536 ? 0.6°
Sets 05:33:54 0° 47° (NE) 3,490 ? 1.1°
